Regional Weather Roundup
Issued by NWS

Home | Current Version | Previous Version | Graphics & Text | Print | Product List | Glossary Off
Versions: 1 2 3 4 5 6 7 8 9 10 11 12 13 14 15 16 17 18 19 20 21 22 23 24 25 26 27 28 29 30 31 32 33 34 35 36 37 38 39 40 41 42 43 44 45 46 47 48 49 50

000
ASUS43 KMPX 190501
RWRMN
WEATHER ROUNDUP FOR MINNESOTA
NATIONAL WEATHER SERVICE TWIN CITIES/CHANHASSEN MN
1100 PM CST WED JAN 18 2017


NOTE: "FAIR" INDICATES FEW OR NO CLOUDS BELOW 12,000 FEET WITH NO
SIGNIFICANT WEATHER AND/OR OBSTRUCTIONS TO VISIBILITY. N/A MEANS
CURRENT SKY AND/OR WEATHER CONDITIONS ARE NOT AVAILABLE.

MNZ060>063-068>070-190600-
   Twin Cities Metro

CITY           SKY/WX    TMP DP  RH WIND       PRES   REMARKS
TWIN CITIES    CLOUDY    32  29  88 SE6       29.84S WCI  26
ST PAUL        CLOUDY    30  30 100 S6        29.86R FOG     WCI  24
CRYSTAL        FOG       28  25  88 CALM      29.82S VSB 1/4
BLAINE         CLOUDY    32  32 100 SE5       29.83S FOG     WCI  27
LAKEVILLE      CLOUDY    32  32 100 S6        29.84R WCI  26
EDEN PRAIRIE   CLEAR     35  32  88 S8        29.82S WCI  29
SOUTH ST PAUL  CLOUDY    30  30  99 CALM      29.85S FOG
LAKE ELMO      FAIR      32  32 100 CALM      29.86R FOG
$$
MNZ001>005-007-008-013>017-022>024-027-028-190600-
   Northwest Minnesota

CITY           SKY/WX    TMP DP  RH WIND       PRES   REMARKS
BEMIDJI        CLOUDY    30  23  76 SE5       29.70F WCI  25
HALLOCK        CLOUDY    27  21  80 S17       29.59F WCI  14
ROSEAU         CLOUDY    32  25  74 S13       29.62S WCI  22
WARROAD        CLOUDY    30  25  80 S7        29.62F WCI  23
THIEF RVR FALL CLOUDY    30  23  75 S13       29.65F WCI  20
CROOKSTON      CLOUDY    30  25  80 S18       29.66F WCI  18
FOSSTON        CLOUDY    27  21  80 S10       29.68S WCI  17
DETROIT LAKES  CLOUDY    28  23  80 SE9       29.71F WCI  20
MOORHEAD       CLOUDY    28  25  86 S12       29.70F WCI  18
PARK RAPIDS    CLOUDY    24  19  81 SE8       29.72S WCI  15
MAHNOMEN       FAIR      30  22  73 SE9       29.68F WCI  22
$$
MNZ006-009>011-018-025>026-190600-
   North Central Minnesota

CITY           SKY/WX    TMP DP  RH WIND       PRES   REMARKS
BAUDETTE       CLOUDY    31  23  72 S7        29.65F WCI  24
FLAG ISLAND    CLOUDY    21  19  93 S10       29.62S WCI  10
INTL FALLS     CLOUDY    28  22  78 S5        29.69S WCI  23
WASKISH        CLOUDY    36  27  69 S6        29.67F
BIG FORK       CLOUDY    30  25  80 S6        29.72F WCI  24
LONGVILLE      CLOUDY    28  25  86 S7        29.74F WCI  21
GRAND RAPIDS   CLOUDY    30  26  85 S8        29.76F WCI  22
CRANE LAKE     CLOUDY    19  18  93 CALM      29.74F
ORR            CLOUDY    30  21  69 CALM      29.70F
COOK           CLOUDY    30  25  80 S5        29.74S WCI  25
WALKER         FAIR      32  25  77 S6        29.72F WCI  26
$$
MNZ012-019>021-037-190600-
   Northeast Minnesota

CITY           SKY/WX    TMP DP  RH WIND       PRES   REMARKS
DULUTH         CLOUDY    33  28  81 SW8       29.77F WCI  26
ELY            CLOUDY    25  21  86 CALM      29.75F
HIBBING        CLOUDY    23  22  96 S3        29.76S
EVELETH        CLOUDY    22  21  93 CALM      29.78S
DULUTH HARBOR  CLOUDY    32  28  86 CALM      29.82S
TWO HARBORS    CLOUDY    30  25  80 CALM      29.77F
SILVER BAY     CLOUDY    25  23  93 CALM      29.78R
G MARAIS ARPRT CLOUDY    25  19  80 CALM      29.77S
$$
MNZ029>031-032-039>041-046>048-054>057-064-190600-
   West Central Minnesota

CITY           SKY/WX    TMP DP  RH WIND       PRES   REMARKS
FERGUS FALLS   CLOUDY    30  27  86 SE9       29.76F WCI  22
WHEATON        CLEAR     34  32  93 SE13      29.73F WCI  25
MORRIS         CLOUDY    27  25  93 SE8       29.72F FOG     WCI  18
ALEXANDRIA     CLOUDY    26  25  96 S8        29.74F WCI  18
ELBOW LAKE     FAIR      29  28  94 E10       29.72F FOG     WCI  20
WADENA         CLOUDY    25  21  86 SE5       29.73F WCI  19
GLENWOOD       FOG       28  28 100 S3        29.75F VSB 1/4
APPLETON       CLOUDY    27  25  93 E6        29.74S FOG     WCI  20
ORTONVILLE     CLOUDY    27  25  93 CALM      29.72S FOG
MADISON        FOG       27  27 100 SE7       29.73F VSB 1/4 WCI  19
WILLMAR        FOG       27  27 100 SE6       29.78S VSB 1/4 WCI  20
$$
MNZ033>034-036-042>043-049>051-058-059-190600-
   Central Minnesota

CITY           SKY/WX    TMP DP  RH WIND       PRES   REMARKS
ST CLOUD       FOG       25  25 100 SE6       29.79S VSB 1/2 WCI  18
SAUK CENTRE      N/A     27  26  99 SE6       29.76F FOG     WCI  20
PAYNESVILLE    CLOUDY    31  31 100 S7        29.78S FOG     WCI  24
AITKIN         CLOUDY    32  27  80 S3        29.76S
PINE RIVER     CLOUDY    27  25  93 SE5       29.79S WCI  21
BRAINERD       CLOUDY    29  28  96 S8        29.77S FOG     WCI  21
STAPLES        CLOUDY    27  25  93 S3        29.74F
LONG PRAIRIE   LGT SNOW  27  25  93 E7        29.76F VSB 1   WCI  19
LITTLE FALLS   CLEAR     30  28  93 SE5       29.78F FOG     WCI  25
LITCHFIELD     FOG       32  30  93 CALM      29.79S VSB 1/2
BUFFALO        FOG       28  27  96 CALM      29.82S VSB 1/4
MAPLE LAKE     FOG       25  24  99 S3        29.81S VSB 1/4
HUTCHINSON     CLOUDY    33  33  99 CALM      29.81S FOG
$$
MNZ037-044-045-052-053-190600-
   East Central Minnesota

CITY           SKY/WX    TMP DP  RH WIND       PRES   REMARKS
PRINCETON      FOG       28  27  93 CALM      29.81S VSB 1
MORA           FOG       23  21  93 CALM      29.82F VSB 1/4
CAMBRIDGE      CLOUDY    34  27  75 SE3       29.80S HAZE
RUSH CITY      CLOUDY    30  28  93 SE3       29.83S FOG
MOOSE LAKE     CLOUDY    30  27  86 CALM      29.78F FOG
HINCKLEY       FAIR      30  30 100 S5        29.81F FOG     WCI  25
CLOQUET        CLOUDY    30  27  86 S3        29.78F
MCGREGOR       CLOUDY    27  25  93 CALM      29.78S
$$
MNZ071>073-080-081-089-090-097-098-190600-
   Southwest Minnesota

CITY           SKY/WX    TMP DP  RH WIND       PRES   REMARKS
MONTEVIDEO       N/A     28  28 100 S6        29.76S FOG     WCI  22
GRANITE FALLS  CLOUDY    32  32  99 SE10      29.76F FOG     WCI  24
CANBY          CLOUDY    40  37  86 SW15G22   29.72F
MARSHALL       CLEAR     39  36  89 SW8G16    29.75R
REDWOOD FALLS  CLEAR     32  29  88 S8        29.77S WCI  25
OLIVIA         CLOUDY    32  32 100 SE8       29.77S WCI  25
PIPESTONE      CLEAR     37  36  93 S15       29.75S
WINDOM           N/A     37  36  93 S12       29.80R
WORTHINGTON    CLEAR     38  34  85 S21       29.79S
JACKSON        CLEAR     34  32  93 S14       29.81F WCI  24
TRACY          CLEAR     40  37  88 SW23G29   29.75R
SLAYTON        CLEAR     37  35  94 S18       29.77S
$$
MNZ065>067-074>077-082>085-091>093-190600-
   South Central Minnesota

CITY           SKY/WX    TMP DP  RH WIND       PRES   REMARKS
MANKATO        CLEAR     36  34  92 S10       29.83S
NEW ULM        CLEAR     34  32  93 S10       29.80S WCI  26
ST JAMES       CLEAR     36  34  93 S13       29.81F
FAIRMONT       CLEAR     35  33  92 S12       29.84S WCI  27
GLENCOE        CLOUDY    36  35  99 S6        29.80S
FARIBAULT      CLEAR     34  32  93 S8        29.85S WCI  27
OWATONNA         N/A     36  30  80 S15       29.85S
WASECA         CLEAR     36  34  93 S10       29.86S
ALBERT LEA     CLEAR     36  34  93 S7        29.86S
$$
MNZ078>079-086>088-094>096-190600-
   Southeast Minnesota

CITY           SKY/WX    TMP DP  RH WIND       PRES   REMARKS
ROCHESTER      CLEAR     33  32  96 S13       29.88S WCI  24
RED WING       CLOUDY    30  28  93 E3        29.87S FOG
STANTON        CLOUDY    36  32  84 S10       29.83S
DODGE CENTER   CLEAR     32  30  93 S12       29.87R WCI  23
WINONA         CLOUDY    36  32  87 CALM      29.92S
AUSTIN         CLEAR     34  30  86 S9        29.88S WCI  26
PRESTON        MOCLDY    33  32  98 S16G22    29.89S FOG     WCI  22
$$
ABBREVIATIONS USED IN REMARKS
   TC - TEMPERATURES IN CELSIUS
  WCI - WIND CHILL INDEX
   HX - HEAT INDEX
  VSB - VISIBILITY
$$




USA.gov is the U.S. government's official web portal to all federal, state and local government web resources and services.